Location: Spring Creek
(38.2870°N, 100.2160°W)
Time: 06:56:24
(UTC+00:00)

BREEZE-M DEB (TANK) - Pass Details

Date: 08 May 2021
Orbit: 293 x 15375 km, 49.4° (Epoch: 21 June)

Event Time Altitude Azimuth Distance (km) Brightness Sun altitude
Rises 03:33:13 0° 302° (WNW) 6,343 9.7 -19.8°
Reaches altitude 10° 03:39:11 10° 305° (NW) 3,695 8.2 -20.6°
Maximum altitude 03:46:13 67° 28° (NNE) 631 3.1 -21.6°
Enters shadow 03:46:36 60° 69° (ENE) 624 2.9 -21.6°
